DW3015 Weather Reports


time (UTC)temp
F
wind
direction
speed
knots
gust
knots
rain 1hr
in
rain 24hr
in
rain mn
in
humidity
%
barometer
mb
20260906171519 96 118 0.0 0.0 0.00 0.00 0.00 53 1012.6
20260906170018 96 132 0.0 0.0 0.00 0.00 0.00 53 1012.8
20260906164516 95 156 0.0 0.0 0.00 0.00 0.00 57 1013.0
20260906163020 95 144 0.0 0.0 0.00 0.00 0.00 57 1013.2
20260906161510 93 188 0.0 0.0 0.00 0.00 0.00 58 1013.2
20260906160024 93 161 0.0 0.0 0.00 0.00 0.00 60 1013.3
20260906154506 92 205 0.0 0.0 0.00 0.00 0.00 61 1013.3
20260906153002 91 132 0.0 0.0 0.00 0.00 0.00 65 1013.1
20260906151605 89 119 0.0 0.0 0.00 0.00 0.00 69 1013.0
20260906150056 88 134 0.0 0.0 0.00 0.00 0.00 69 1013.0
20260906144554 87 122 0.0 0.0 0.00 0.00 0.00 70 1013.1
20260906143107 86 125 0.0 0.0 0.00 0.00 0.00 76 1013.2
20260906141544 83 96 0.0 0.0 0.00 0.00 0.00 80 1013.4
20260906140045 80 92 0.0 0.0 0.00 0.00 0.00 83 1013.5
20260906134539 77 83 0.0 0.0 0.00 0.00 0.00 77 1013.6
20260906133033 75 140 0.0 0.0 0.00 0.00 0.00 75 1013.5
20260906131532 74 140 0.0 0.0 0.00 0.00 0.00 74 1013.4
20260906130041 74 140 0.0 0.0 0.00 0.00 0.00 74 1013.2
20260906124528 73 140 0.0 0.0 0.00 0.00 0.00 74 1012.8
20260906123033 73 0.0 0.0 0.00 0.00 0.00 73 1012.7
20260906121525 72 0.0 0.0 0.00 0.00 0.00 74 1012.6
20260906120023 72 0.0 0.0 0.00 0.00 0.00 77 1012.4
20260906114521 73 0.0 0.0 0.00 0.00 0.00 74 1012.3
20260906113036 73 0.0 0.0 0.00 0.00 0.00 76 1012.1
20260906111522 72 0.0 0.0 0.00 0.00 0.00 76 1012.1
20260906110018 72 0.0 0.0 0.00 0.00 0.00 77 1012.0
20260906104515 72 0.0 0.0 0.00 0.00 0.00 78 1011.9
20260906103014 72 0.0 0.0 0.00 0.00 0.00 79 1011.9
20260906101514 73 0.0 0.0 0.00 0.00 0.00 78 1011.9
20260906100012 73 0.0 0.0 0.00 0.00 0.00 79 1011.9
20260906094518 73 0.0 0.0 0.00 0.00 0.00 79 1011.9
20260906093011 73 0.0 0.0 0.00 0.00 0.00 80 1011.8
20260906091522 73 140 0.0 0.0 0.00 0.00 0.00 81 1011.7
20260906090006 73 139 0.0 0.0 0.00 0.00 0.00 80 1011.5
20260906084515 74 140 0.0 0.0 0.00 0.00 0.00 80 1011.5
20260906083104 74 139 0.0 0.0 0.00 0.00 0.00 78 1011.3
20260906081511 74 140 0.0 0.0 0.00 0.00 0.00 80 1011.1
20260906080002 74 140 0.0 0.0 0.00 0.00 0.00 81 1011.0
20260906074501 74 140 0.0 0.0 0.00 0.00 0.00 81 1011.1
20260906073100 74 139 0.0 0.0 0.00 0.00 0.00 82 1011.1
20260906071608 75 139 0.0 0.0 0.00 0.00 0.00 81 1011.2
20260906070057 75 140 0.0 0.0 0.00 0.00 0.00 81 1011.2
20260906064555 75 140 0.0 0.0 0.00 0.00 0.00 83 1011.4
20260906063053 75 139 0.0 0.0 0.00 0.00 0.00 82 1011.6
20260906061553 75 140 0.0 0.0 0.00 0.00 0.00 82 1011.7
20260906060052 75 139 0.0 0.0 0.00 0.00 0.00 82 1011.7
20260906054555 75 140 0.0 0.0 0.00 0.00 0.00 82 1011.7
20260906053050 75 140 0.0 0.0 0.00 0.00 0.00 83 1011.7
20260906051553 75 140 0.0 0.0 0.00 0.00 0.00 83 1011.7
20260906050110 76 139 0.0 0.0 0.00 0.00 0.00 83 1011.7
20260906044552 76 139 0.0 0.0 0.00 0.00 0.00 83 1011.6
20260906043055 76 139 0.0 0.0 0.00 0.00 0.00 82 1011.5
20260906041544 76 139 0.0 0.0 0.00 0.00 0.00 81 1011.4
20260906040047 76 139 0.0 0.0 0.00 0.00 0.00 83 1011.3
20260906034545 76 139 0.0 0.0 0.00 0.00 0.00 83 1011.0
20260906033045 77 139 0.0 0.0 0.00 0.00 0.00 83 1010.8
20260906031545 78 139 0.0 0.0 0.00 0.00 0.00 83 1010.6
20260906030043 78 140 0.0 0.0 0.00 0.00 0.00 83 1010.6
20260906024541 79 140 0.0 0.0 0.00 0.00 0.00 83 1010.4
20260906023041 79 140 0.0 0.0 0.00 0.00 0.00 82 1010.2
20260906021550 80 140 0.0 0.0 0.00 0.00 0.00 81 1010.1
20260906020041 81 140 0.0 0.0 0.00 0.00 0.00 79 1010.0
20260906014540 82 140 0.0 0.0 0.00 0.00 0.00 79 1009.7
20260906013040 83 140 0.0 0.0 0.00 0.00 0.00 78 1009.6
20260906011539 84 140 0.0 0.0 0.00 0.00 0.00 77 1009.5
20260906010042 85 140 0.0 0.0 0.00 0.00 0.00 75 1009.5
20260906004542 86 140 0.0 0.0 0.00 0.00 0.00 73 1009.5
20260906003038 87 140 0.0 0.0 0.00 0.00 0.00 67 1009.6
20260906001537 89 140 0.0 0.0 0.00 0.00 0.00 65 1009.6
20260906000037 90 140 0.0 0.0 0.00 0.00 0.00 61 1009.5
20260905234540 91 140 0.0 0.0 0.00 0.00 0.00 55 1009.5
20260905233037 92 140 0.0 0.0 0.00 0.00 0.00 57 1009.5
20260905231537 94 140 0.0 0.0 0.00 0.00 0.00 57 1009.4
20260905230035 96 140 0.0 0.0 0.00 0.00 0.00 51 1009.3
20260905224540 97 140 0.0 0.0 0.00 0.00 0.00 46 1009.2
20260905223039 98 140 0.0 0.0 0.00 0.00 0.00 43 1009.2
20260905221534 98 115 0.0 0.0 0.00 0.00 0.00 44 1009.2
20260905220033 99 144 0.0 0.0 0.00 0.00 0.00 43 1009.2
20260905214533 99 143 0.0 0.0 0.00 0.00 0.00 44 1009.2
20260905213030 99 154 0.0 0.0 0.00 0.00 0.00 45 1009.6
20260905211527 99 163 0.0 0.0 0.00 0.00 0.00 43 1009.8
20260905210031 98 140 0.0 0.0 0.00 0.00 0.00 48 1010.1
20260905204524 99 163 0.0 0.0 0.00 0.00 0.00 45 1010.3
20260905203024 99 261 0.0 0.0 0.00 0.00 0.00 45 1010.5
20260905201533 99 211 0.0 0.0 0.00 0.00 0.00 43 1010.7
20260905200030 99 219 0.0 0.0 0.00 0.00 0.00 43 1010.7
20260905194522 99 236 0.0 0.0 0.00 0.00 0.00 42 1010.8
20260905193027 99 217 0.0 0.0 0.00 0.00 0.00 42 1010.9
20260905191519 98 243 0.0 0.0 0.00 0.00 0.00 44 1011.1
20260905190019 96 338 0.0 0.0 0.00 0.00 0.00 50 1011.4
20260905184523 96 144 0.0 0.0 0.00 0.00 0.00 50 1011.6
20260905183025 98 209 0.0 0.0 0.00 0.00 0.00 43 1011.7
20260905181517 98 167 0.0 0.0 0.00 0.00 0.00 44 1011.6
20260905180016 99 152 0.0 0.0 0.00 0.00 0.00 46 1011.7
20260905174527 97 184 0.0 0.0 0.00 0.00 0.00 50 1011.9
20260905173009 96 155 0.0 0.0 0.00 0.00 0.00 54 1012.2